Simultaneous Nadir Overpasses (SNOs) Predictions

Prediction of SNOs between NOAA-19 and METOP-C Satellite Orbit:

Table of predicted SNOs for the next 14.0 days since TLE Epoch: 8/2/2025
Index Date (NOAA-19) Time (NOAA-19) Lat,Lon (NOAA-19) SZA (NOAA-19 ) Date (METOP-C) Time (METOP-C) Lat,Lon (METOP-C) SZA (METOP-C ) Distance(km) Time Diff (sec)
1 08/13/2025 02:25:42 -80.74, 36.94 107.29 08/13/2025 02:26:53 -80.75, 36.80 107.26 2.62 71
2 08/13/2025 03:16:45 80.73,-155.63 72.76 08/13/2025 03:17:33 80.74,-155.71 72.78 1.46 48
3 08/13/2025 04:07:38 -80.74, 11.58 107.25 08/13/2025 04:08:14 -80.73, 11.68 107.21 1.82 36
4 08/13/2025 04:58:41 80.73, 179.01 72.80 08/13/2025 04:58:54 80.72, 179.17 72.83 2.98 13
5 08/13/2025 05:49:33 -80.72, -13.43 107.16 08/13/2025 05:49:35 -80.72, -13.44 107.16 0.38 2
6 08/13/2025 06:40:35 80.69, 154.35 72.94 08/13/2025 06:40:14 80.69, 154.39 72.93 0.86 21
7 08/13/2025 07:31:27 -80.68, -38.09 107.01 08/13/2025 07:30:55 -80.68, -38.22 107.06 2.48 32
8 08/13/2025 08:22:30 80.67, 129.34 73.03 08/13/2025 08:21:35 80.67, 129.27 72.98 1.36 55



Historial Predications of SNOs between NOAA-19 and METOP-C
